This demonstration page uses our WeatherBlox Daily Observations layout. Learn more.

Left ArrowRight Arrow

41.12389, -100.76542

Hourly Observations for August 23, 2019

Temp ( °F °C ) Dew Point ( °F °C ) Humidity (%) Winds ( mph kmh ) Pressure ( in mb ) Visibility ( mi km ) Precip ( " mm )
12:00 am 00:00 Cloudy with Light Rain 69 20.6 66 18.9 90 90 SE 17 28 29.86 1011 10 16 0.00 0.00
12:17 am 00:17 Cloudy 69 20.6 66 18.9 90 90 SE 16 26 29.87 1011 10 16 0.00 0.00
12:53 am 00:53 Cloudy 69 20.6 66 18.9 90 90 SSE 13 20 29.92 1013 10 16 0.00 0.00
1:34 am 01:34 Cloudy 70 21.1 66 18.9 87 87 SSE 14 22 29.86 1011 10 16 0.00 0.00
1:53 am 01:53 Cloudy 70 21.1 66 18.9 87 87 SE 15 24 29.90 1013 10 16 0.00 0.00
2:04 am 02:04 Cloudy 70 21.1 66 18.9 87 87 SSE 8 13 29.86 1011 10 16 0.00 0.00
2:53 am 02:53 Cloudy 70 21.1 66 18.9 87 87 S 13 20 29.91 1013 10 16 0.00 0.00
3:53 am 03:53 Cloudy 70 21.1 66 18.9 87 87 S 10 17 29.93 1013 10 16 0.00 0.00
4:14 am 04:14 Cloudy 69 20.6 65 18.3 87 87 SSE 10 17 29.90 1012 10 16 0.00 0.00
4:29 am 04:29 Mostly Cloudy 69 20.6 65 18.3 87 87 SSE 10 17 29.90 1012 10 16 0.00 0.00
4:53 am 04:53 Mostly Cloudy 69 20.6 65 18.3 87 87 SSE 13 20 29.93 1014 10 16 0.00 0.00
5:40 am 05:40 Mostly Clear 68 20 65 18.3 90 90 SSE 14 22 29.87 1012 10 16 0.00 0.00
5:53 am 05:53 Partly Cloudy 68 20 65 18.3 90 90 SE 12 19 29.90 1013 10 16 0.00 0.00
6:02 am 06:02 Mostly Cloudy 68 20 65 18.3 90 90 SSE 14 22 29.87 1012 10 16 0.00 0.00
6:15 am 06:15 Partly Cloudy 67 19.4 64 17.8 91 91 SE 13 20 29.88 1012 10 16 0.00 0.00
6:35 am 06:35 Mostly Clear 67 19.4 64 17.8 91 91 SE 9 15 29.88 1012 10 16 0.00 0.00
6:53 am 06:53 Mostly Cloudy 66 18.9 64 17.8 93 93 ESE 10 17 29.91 1013 10 16 0.00 0.00
7:53 am 07:53 Cloudy 67 19.4 64 17.8 91 91 SSE 10 17 29.94 1014 10 16 0.00 0.00
8:00 am 08:00 Cloudy 68 20 64 17.8 87 87 S 10 17 29.90 1013 10 16 0.00 0.00
8:37 am 08:37 Cloudy 69 20.6 64 17.8 84 84 S 7 11 29.91 1013 10 16 0.00 0.00
8:53 am 08:53 Mostly Cloudy 69 20.6 64 17.8 84 84 SSE 8 13 29.95 1014 10 16 0.00 0.00
9:53 am 09:53 Cloudy 72 22.2 64 17.8 76 76 SSE 12 19 29.95 1014 10 16 0.00 0.00
10:53 am 10:53 Cloudy 73 22.8 64 17.8 74 74 S 16 26 29.97 1015 10 16 0.00 0.00
11:53 am 11:53 Cloudy 73 22.8 64 17.8 74 74 S 10 17 29.98 1015 10 16 0.00 0.00
12:53 pm 12:53 Cloudy 74 23.3 65 18.3 74 74 SSE 12 19 29.97 1015 10 16 0.00 0.00
1:34 pm 13:34 Cloudy 75 23.9 65 18.3 71 71 SSE 12 19 29.90 1013 10 16 0.00 0.00
1:53 pm 13:53 Mostly Cloudy 76 24.4 65 18.3 69 69 SSE 10 17 29.96 1015 10 16 0.00 0.00
2:04 pm 14:04 Mostly Cloudy 77 25 65 18.3 66 66 SSE 17 28 29.88 1012 10 16 0.00 0.00
2:53 pm 14:53 Partly Cloudy 78 25.6 64 17.8 62 62 S 15 24 29.95 1014 10 16 0.00 0.00
3:53 pm 15:53 Mostly Sunny 81 27.2 66 18.9 61 61 S 13 20 29.93 1014 10 16 0.00 0.00
4:53 pm 16:53 Mostly Cloudy 80 26.7 66 18.9 62 62 SE 15 24 29.94 1014 10 16 0.00 0.00
5:53 pm 17:53 Mostly Cloudy 78 25.6 65 18.3 64 64 S 10 17 29.93 1014 10 16 0.00 0.00
6:53 pm 18:53 Mostly Sunny 76 24.4 64 17.8 67 67 SSE 9 15 29.94 1014 10 16 0.00 0.00
7:53 pm 19:53 Mostly Sunny 73 22.8 65 18.3 76 76 SE 14 22 29.92 1013 10 16 0.00 0.00
8:53 pm 20:53 Clear 71 21.7 65 18.3 81 81 SSE 8 13 29.96 1015 10 16 0.00 0.00
9:53 pm 21:53 Mostly Clear 69 20.6 65 18.3 87 87 SSE 6 9 29.99 1016 10 16 0.00 0.00
10:53 pm 22:53 Partly Cloudy 69 20.6 65 18.3 87 87 SE 7 11 29.97 1015 10 16 0.00 0.00
11:09 pm 23:09 Mostly Cloudy 69 20.6 66 18.9 90 90 SSE 8 13 29.93 1013 10 16 0.00 0.00
11:41 pm 23:41 Cloudy 69 20.6 66 18.9 90 90 SSE 6 9 29.94 1014 10 16 0.00 0.00
11:49 pm 23:49 Cloudy 70 21 66 19 88 88 SSE 9 15 29.95 1014 10 16 0.00 0.00
11:53 pm 23:53 Cloudy 70 21.1 67 19.4 90 90 SSE 8 13 29.99 1016 10 16 0.00 0.00

Powered by AerisWeather